Home   Weather   Cape Dorset   Past weeks

Flag for Canada Past Weather in Cape Dorset, Nunavut, Canada — Yesterday and Last 2 Weeks

Now
-4 °F

Clear.


Feels Like: -4 °F
Forecast: N/A
Wind: 2 mph from West

Location: Cape Dorset

Current Time: Jan 21, 2017 at 5:02:37 pm

Latest Report: Jan 21, 2017 at 4:28 pm


Visibility: 9 mi

Pressure: 30.40 "Hg

Humidity: 45%

Dew Point: -20 °F

Location of Cape DorsetLocation

Past Weather in Cape Dorset — Graph

°F

Cape Dorset Temperature Yesterday

Maximum temperature yesterday: -4 °F (at 7:00 pm)
Minimum temperature yesterday: -15 °F (at 5:38 am)
Average temperature yesterday: -10 °F

High & Low Weather Summary for the Past Weeks

 TemperatureHumidityPressure
High19 °F (Jan 18, 7:03 am)100% (Jan 18, 3:52 am)30.39 "Hg (Jan 18, 3:52 am)
Low-20 °F (Jan 10, 5:56 am)41% (Jan 20, 7:00 pm)29.09 "Hg (Jan 12, 2:00 pm)
Average-6 °F79%29.69 "Hg
* Reported Jan 6 3:00 pm — Jan 21 3:51 pm, Cape Dorset, Weather by CustomWeather, © 2017

Note: Actual official high and low records may vary slightly from our data, if they occured in-between our weather recording intervals... More about our weather records

Advertising

Cape Dorset Weather History for the Previous 24 Hours

Scroll right to see more
 ConditionsComfort  
Time TempWeatherWind HumidityBarometerVisibility
3:51 pm
Sat, Jan 21
-6 °FClear.3 mph49%30.39 "Hg9 mi
3:19 pm-4 °FLight snow. Clear.3 mph49%30.38 "Hg9 mi
2:00 pm-4 °FSunny.3 mph45%30.36 "Hg9 mi
1:34 pm-4 °FSunny.5 mph45%30.35 "Hg9 mi
1:10 pm-6 °FLight snow. Sunny.3 mph49%30.35 "Hg9 mi
1:00 pm-6 °FSunny.5 mph49%30.35 "Hg9 mi
12:41 pm-4 °FSunny.2 mph45%30.35 "Hg9 mi
12:17 pm-6 °FLight snow. Sunny.3 mph49%30.36 "Hg9 mi
12:01 pm-4 °FSunny.No wind45%30.35 "Hg9 mi
11:27 am-4 °FLight snow. Sunny.5 mph45%30.36 "Hg9 mi
11:00 am-6 °FSunny.6 mph49%30.36 "Hg9 mi
10:00 am-6 °FSunny.6 mph54%30.36 "Hg9 mi
9:00 am-8 °FClear.6 mph58%30.34 "Hg9 mi
8:00 am-8 °FClear.6 mph58%30.34 "Hg9 mi
7:00 am-8 °FClear.6 mph64%30.34 "Hg9 mi
6:00 am-6 °FClear.5 mph64%30.32 "Hg9 mi
5:00 am-6 °FClear.No wind59%30.32 "Hg9 mi
4:00 am-6 °FClear.2 mph64%30.31 "Hg9 mi
3:00 am-8 °FClear.2 mph64%30.31 "Hg9 mi
2:00 am-6 °FClear.3 mph64%30.29 "Hg9 mi
1:00 am-8 °FClear.6 mph64%30.28 "Hg9 mi
12:00 am-4 °FClear.6 mph59%30.28 "Hg9 mi
11:00 pm
Fri, Jan 20
-4 °FClear.2 mph65%30.27 "Hg9 mi
10:00 pm-6 °FClear.3 mph64%30.27 "Hg9 mi
9:00 pm-6 °FClear.8 mph64%30.26 "Hg9 mi
8:00 pm-8 °FClear.6 mph53%30.25 "Hg9 mi
7:00 pm-4 °FClear.3 mph41%30.24 "Hg9 mi
6:00 pm-6 °FClear.5 mph49%30.24 "Hg9 mi
5:26 pm-8 °FClear.3 mph53%30.23 "Hg9 mi
5:06 pm-8 °FLight snow. Clear.7 mph53%30.22 "Hg9 mi
Weather by CustomWeather, © 2017

See weather overviewHow to use our weather pages